Estación municipal de St. Hilari Sacalm (La Selva, Guilleries)

Consulta los datos en tiempo real de la estación municipal de St. Hilari Sacalm





Hora UTC 20:40
Temperatura 21.0 ºC
Humedad 81.1 %
Presión 1025.0 hPa
Pluja 0.0 mm
Velocidad viento 0.0 km/h
Dirección viento NNE
Radiación solar 0.1 W/m²

Webcam

Datos diarios 2026-09-03



Hora UTC (invierno +1h; verano +2h)
Temperatura (ºC) Humedad (%) Presión (hPa) Velocidad viento (km/h) Precipitación (mm) Radiación solar (W/m²)
Hora UTC Aire Humedad Presión Vel. Dir. Vel. Max Dir. Intent. máx 5 min. Rad. Sol.
00:05 18.8 76.6 1024.8 0.0 NNE 0.0 SSW 0.0 0.1
00:10 18.7 76.7 1024.9 0.0 NNE 0.0 SW 0.0 0.1
00:15 18.6 76.8 1024.9 0.0 NNE 0.0 WSW 0.0 0.1
00:20 18.5 77.1 1024.9 0.0 NNE 0.0 S 0.0 0.1
00:25 18.4 77.7 1024.9 0.0 NNE 0.0 W 0.0 0.1
00:30 18.5 77.6 1024.9 0.0 NNE 0.0 W 0.0 0.1
00:35 18.5 77.2 1024.9 0.0 NNE 0.0 W 0.0 0.1
00:40 18.5 77.3 1025.0 0.0 NNE 0.0 W 0.0 0.1
00:45 18.5 77.3 1025.0 0.0 NNE 0.0 WSW 0.0 0.1
00:50 18.4 77.5 1024.9 0.0 NNE 0.0 SSW 0.0 0.1
00:55 18.3 77.7 1024.9 0.0 NNE 0.0 SSW 0.0 0.1
01:00 18.3 77.7 1024.9 0.0 NNE 0.0 S 0.0 0.1
01:05 18.2 77.6 1024.9 0.0 WSW 3.4 WSW 0.0 0.1
01:10 18.1 78.1 1024.9 0.4 WSW 6.1 W 0.0 0.1
01:15 18.0 78.5 1024.9 0.1 WSW 6.1 W 0.0 0.2
01:20 17.9 78.8 1024.9 0.0 WNW 3.4 W 0.0 0.1
01:25 17.9 78.8 1024.8 0.0 NNE 0.0 W 0.0 0.1
01:30 17.9 78.3 1024.8 0.0 WSW 3.4 WSW 0.0 0.1
01:35 17.9 78.4 1024.8 0.9 W 6.1 WNW 0.0 0.1
01:40 18.1 78.5 1024.8 0.0 NNE 0.0 WNW 0.0 0.1
01:45 18.2 78.2 1024.8 0.0 WSW 3.4 WNW 0.0 0.1
01:50 18.0 78.3 1024.8 0.0 NNE 0.0 WSW 0.0 0.1
01:55 18.0 79.1 1024.8 0.0 W 3.4 W 0.0 0.1
02:00 18.0 79.9 1024.8 0.2 W 6.1 WNW 0.0 0.1
02:05 18.0 80.0 1024.7 0.0 NNE 0.0 W 0.0 0.1
02:10 17.9 80.1 1024.7 0.0 NNE 0.0 WSW 0.0 0.1
02:15 17.8 80.5 1024.7 0.1 W 3.4 W 0.0 0.1
02:20 17.7 81.3 1024.7 0.1 W 3.4 NW 0.0 0.1
02:25 17.7 81.8 1024.7 0.0 WSW 3.4 WSW 0.0 0.1
02:30 17.7 82.2 1024.7 0.1 WSW 6.1 WSW 0.0 0.1
02:35 17.7 82.3 1024.7 0.1 SW 3.4 SW 0.0 0.1
02:40 17.7 82.5 1024.7 0.3 WSW 6.1 W 0.0 0.1
02:45 17.6 82.5 1024.7 0.1 SW 3.4 SW 0.0 0.1
02:50 17.5 82.8 1024.7 0.0 NNE 0.0 WSW 0.0 0.2
02:55 17.4 83.1 1024.7 0.0 NNE 0.0 SW 0.0 0.1
03:00 17.3 83.6 1024.6 0.0 NNE 0.0 WSW 0.0 0.1
03:05 17.3 84.1 1024.6 0.0 NNE 0.0 W 0.0 0.1
03:10 17.2 84.4 1024.6 0.0 NNE 0.0 SW 0.0 0.1
03:15 17.1 84.5 1024.6 0.0 NNE 0.0 WSW 0.0 0.1
03:20 17.0 85.2 1024.6 0.0 NNE 0.0 W 0.0 0.1
03:25 17.1 85.8 1024.5 0.0 NNE 0.0 W 0.0 0.1
03:30 17.1 85.5 1024.5 0.0 NNE 0.0 WSW 0.0 0.1
03:35 17.1 85.4 1024.5 0.0 NNE 0.0 W 0.0 0.1
03:40 17.2 85.7 1024.4 0.0 NNE 0.0 W 0.0 0.1
03:45 17.3 85.3 1024.4 0.0 NNE 0.0 NW 0.0 0.1
03:50 17.3 85.1 1024.4 0.0 NNE 0.0 WSW 0.0 0.1
03:55 17.3 85.0 1024.3 0.0 NNE 0.0 WSW 0.0 0.1
04:00 17.3 84.8 1024.3 0.0 NNE 0.0 WSW 0.0 0.1
04:05 17.4 84.8 1024.3 0.0 NNE 0.0 WNW 0.0 0.1
04:10 17.5 84.1 1024.2 0.0 NNE 0.0 W 0.0 0.1
04:15 17.8 83.0 1024.2 0.0 NNE 0.0 W 0.0 0.1
04:20 17.8 81.9 1024.3 0.0 NNE 0.0 WNW 0.0 0.1
04:25 17.8 81.6 1024.2 0.0 NNE 0.0 WNW 0.0 0.1
04:30 17.7 81.8 1024.2 0.0 NNE 0.0 WSW 0.0 0.1
04:35 17.5 82.7 1024.2 0.0 NNE 0.0 SW 0.0 0.1
04:40 17.3 83.6 1024.2 0.0 NNE 0.0 W 0.0 0.1
04:45 17.2 83.9 1024.2 0.0 NNE 0.0 W 0.0 0.1
04:50 17.2 83.9 1024.3 0.0 NNE 0.0 WNW 0.0 0.1
04:55 17.3 83.5 1024.2 0.0 NNE 0.0 W 0.0 0.2
05:00 17.3 83.2 1024.3 0.0 NNE 0.0 WSW 0.0 0.3
05:05 17.3 83.3 1024.3 0.0 NNE 0.0 WNW 0.0 0.7
05:10 17.4 83.5 1024.3 0.0 NNE 0.0 WSW 0.0 1.3
05:15 17.4 83.1 1024.3 0.0 NNE 0.0 SSW 0.0 2.3
05:20 17.3 83.6 1024.4 0.0 NNE 0.0 W 0.0 3.8
05:25 17.2 84.1 1024.4 0.0 NNE 0.0 W 0.0 5.9
05:30 17.3 84.4 1024.5 0.0 NNE 0.0 WSW 0.0 9.1
05:35 17.4 83.8 1024.5 0.0 NNE 0.0 W 0.0 12.3
05:40 17.4 83.5 1024.5 0.0 NNE 0.0 WNW 0.0 16.0
05:45 17.7 82.8 1024.6 0.0 NNE 0.0 W 0.0 19.3
05:50 17.9 81.7 1024.7 0.0 NNE 0.0 WSW 0.0 50.8
05:55 18.0 81.2 1024.7 0.0 NNE 0.0 NW 0.0 69.4
06:00 18.3 80.8 1024.7 0.0 NNE 0.0 W 0.0 83.4
06:05 19.0 78.6 1024.8 0.0 NNE 0.0 W 0.0 96.4
06:10 19.7 76.0 1024.8 0.0 NNE 0.0 WNW 0.0 110.4
06:15 20.6 72.5 1024.9 0.0 NNE 0.0 W 0.0 124.5
06:20 21.5 68.7 1024.9 0.0 NNE 0.0 WNW 0.0 138.8
06:25 21.9 66.9 1024.9 0.0 NNE 0.0 NW 0.0 153.0
06:30 22.3 65.3 1025.0 0.1 W 6.1 W 0.0 168.1
06:35 22.7 63.1 1025.0 2.3 WNW 8.8 NW 0.0 183.5
06:40 23.1 61.9 1025.0 0.8 WNW 8.8 NW 0.0 198.9
06:45 23.3 61.3 1025.0 0.0 NNE 0.0 WNW 0.0 214.3
06:50 23.3 60.8 1025.1 2.0 NW 11.5 W 0.0 229.9
06:55 23.6 60.2 1025.1 0.6 NW 6.1 NW 0.0 245.4
07:00 23.8 58.9 1025.1 2.9 NW 11.5 NNW 0.0 260.8
07:05 24.0 58.5 1025.1 1.5 NW 8.8 WNW 0.0 275.8
07:10 24.2 57.8 1025.1 0.6 NW 8.8 WNW 0.0 291.2
07:15 24.4 56.7 1025.1 1.2 NW 11.5 NW 0.0 307.0
07:20 24.7 56.1 1025.1 0.0 NNE 0.0 WNW 0.0 322.3
07:25 24.8 54.7 1025.1 0.0 NNE 0.0 W 0.0 336.9
07:30 25.0 55.6 1025.1 1.1 NNW 8.8 N 0.0 351.6
07:35 25.0 55.5 1025.2 1.6 N 8.8 N 0.0 365.5
07:40 25.1 55.3 1025.2 2.2 N 11.5 N 0.0 379.7
07:45 25.2 54.4 1025.2 2.9 NNW 8.8 N 0.0 393.2
07:50 25.2 53.6 1025.2 0.0 NNE 0.0 NNW 0.0 372.7
07:55 25.3 53.5 1025.2 0.0 NNE 0.0 W 0.0 421.6
08:00 25.8 52.3 1025.2 0.3 NNE 6.1 NNE 0.0 436.5
08:05 26.2 50.7 1025.1 0.1 WSW 3.4 WNW 0.0 451.4
08:10 26.4 49.8 1025.2 0.3 NNW 6.1 NNW 0.0 464.4
08:15 26.4 50.8 1025.2 1.7 S 8.8 S 0.0 477.9
08:20 26.1 52.1 1025.3 0.0 NNE 0.0 SW 0.0 490.2
08:25 25.8 52.4 1025.3 0.0 NNE 0.0 S 0.0 503.8
08:30 25.3 54.1 1025.3 0.4 SSW 8.8 S 0.0 517.3
08:35 25.3 53.7 1025.4 4.7 SSE 11.5 S 0.0 529.5
08:40 25.4 53.9 1025.4 0.5 ESE 11.5 NE 0.0 542.2
08:45 25.8 53.4 1025.5 5.9 ENE 11.5 NE 0.0 554.3
08:50 26.0 53.0 1025.5 4.0 ENE 11.5 ENE 0.0 565.9
08:55 26.1 52.8 1025.6 3.3 NE 11.5 E 0.0 577.3
09:00 26.2 51.4 1025.6 5.8 ENE 14.2 NE 0.0 587.5
09:05 26.0 51.6 1025.6 6.7 ENE 11.5 NE 0.0 597.8
09:10 26.0 52.4 1025.6 5.8 ENE 11.5 ENE 0.0 610.4
09:15 26.5 51.3 1025.6 2.0 ENE 14.2 E 0.0 620.0
09:20 26.3 50.8 1025.7 5.7 ENE 11.5 NE 0.0 630.7
09:25 26.2 51.8 1025.6 3.3 NE 8.8 N 0.0 640.7
09:30 26.4 50.9 1025.7 4.5 ENE 14.2 NE 0.0 651.3
09:35 26.4 50.2 1025.7 5.8 ENE 14.2 ENE 0.0 660.6
09:40 26.4 51.0 1025.7 3.0 NE 14.2 E 0.0 669.7
09:45 26.3 50.4 1025.7 5.9 ENE 14.2 ENE 0.0 677.9
09:50 26.3 50.4 1025.7 2.4 ESE 11.5 SE 0.0 687.2
09:55 26.8 50.4 1025.6 0.7 ENE 8.8 ENE 0.0 696.1
10:00 27.1 48.7 1025.7 1.1 ENE 11.5 ENE 0.0 704.2
10:05 26.7 49.6 1025.7 4.5 NE 14.2 NE 0.0 710.9
10:10 26.7 50.6 1025.7 0.5 NE 6.1 NE 0.0 717.5
10:15 27.1 49.1 1025.6 0.7 ENE 8.8 ENE 0.0 725.5
10:20 27.5 47.6 1025.7 5.7 E 16.9 E 0.0 731.8
10:25 27.5 47.7 1025.6 8.1 ENE 14.2 E 0.0 738.2
10:30 27.4 48.0 1025.6 5.7 ENE 11.5 E 0.0 745.7
10:35 27.4 47.7 1025.5 7.5 ENE 16.9 NE 0.0 752.4
10:40 27.3 48.2 1025.5 8.1 ENE 16.9 E 0.0 756.4
10:45 27.9 46.9 1025.4 7.3 E 14.2 ESE 0.0 761.2
10:50 28.0 46.6 1025.4 5.4 E 11.5 SE 0.0 766.0
10:55 28.1 46.0 1025.4 6.2 E 16.9 ENE 0.0 768.3
11:00 27.9 46.0 1025.3 9.8 ENE 16.9 ENE 0.0 772.0
11:05 27.8 46.0 1025.3 7.7 E 14.2 E 0.0 776.4
11:10 27.9 46.2 1025.2 8.4 NE 16.9 ENE 0.0 779.6
11:15 28.2 45.5 1025.2 5.4 ENE 14.2 ENE 0.0 779.9
11:20 28.4 43.8 1025.2 8.3 E 25.0 ENE 0.0 782.7
11:25 28.3 43.7 1025.2 7.7 ENE 16.9 NE 0.0 786.1
11:30 28.4 43.1 1025.2 10.4 E 22.3 E 0.0 785.2
11:35 28.5 42.8 1025.1 7.7 ENE 14.2 ESE 0.0 784.3
11:40 28.6 42.9 1025.1 8.4 E 19.6 ENE 0.0 783.8
11:45 28.4 43.6 1025.1 11.1 ENE 22.3 ENE 0.0 786.2
11:50 28.5 44.2 1025.1 7.4 E 16.9 ENE 0.0 784.9
11:55 28.8 43.7 1025.1 7.7 ENE 16.9 E 0.0 778.6
12:00 28.6 44.4 1025.0 9.4 ENE 25.0 E 0.0 776.2
12:05 28.4 44.8 1025.0 7.2 E 22.3 NE 0.0 774.6
12:10 28.5 44.7 1024.9 9.9 ENE 19.6 E 0.0 773.5
12:15 28.4 45.8 1024.9 7.8 NE 22.3 NE 0.0 767.1
12:20 28.3 45.6 1024.9 7.9 NE 16.9 E 0.0 766.9
12:25 28.2 46.7 1024.8 6.9 NE 16.9 ENE 0.0 764.0
12:30 28.3 46.0 1024.9 6.2 ENE 14.2 E 0.0 762.5
12:35 28.3 47.2 1024.9 7.6 ENE 22.3 E 0.0 712.8
12:40 28.4 47.3 1024.9 9.1 ENE 19.6 E 0.0 747.8
12:45 28.3 48.1 1024.9 5.8 ENE 14.2 ENE 0.0 749.0
12:50 28.3 48.4 1024.8 7.8 E 16.9 E 0.0 745.9
12:55 28.1 49.9 1024.8 6.0 ENE 16.9 NE 0.0 740.6
13:00 28.3 50.6 1024.8 6.4 E 22.3 E 0.0 739.2
13:05 28.4 50.3 1024.8 5.5 ESE 16.9 ESE 0.0 734.6
13:10 28.7 49.5 1024.8 5.9 ESE 11.5 ENE 0.0 726.7
13:15 28.5 50.1 1024.8 7.4 E 16.9 ESE 0.0 717.6
13:20 28.9 48.8 1024.8 4.8 ENE 16.9 ENE 0.0 710.3
13:25 28.8 49.7 1024.7 4.8 E 14.2 E 0.0 703.8
13:30 28.9 49.0 1024.7 6.8 ENE 19.6 E 0.0 694.4
13:35 28.8 48.7 1024.7 5.9 E 14.2 ENE 0.0 684.5
13:40 28.7 48.2 1024.7 4.6 SE 16.9 SE 0.0 676.5
13:45 28.5 47.3 1024.7 9.1 SE 14.2 SE 0.0 667.2
13:50 28.6 48.4 1024.6 2.2 E 11.5 ENE 0.0 657.4
13:55 28.7 46.6 1024.6 10.1 SSE 25.0 SE 0.0 646.9
14:00 28.8 47.0 1024.6 6.8 ESE 16.9 E 0.0 637.4
14:05 28.6 46.8 1024.5 7.5 SE 16.9 SE 0.0 627.3
14:10 28.4 47.0 1024.5 3.9 SE 16.9 SE 0.0 618.6
14:15 28.3 47.0 1024.5 10.1 ESE 16.9 ESE 0.0 608.2
14:20 28.0 47.7 1024.4 4.0 ESE 11.5 SE 0.0 596.8
14:25 28.3 47.4 1024.3 5.4 E 14.2 E 0.0 588.1
14:30 28.6 47.0 1024.3 0.0 NNE 0.0 ENE 0.0 577.0
14:35 28.6 45.7 1024.3 3.6 SSE 16.9 S 0.0 567.1
14:40 28.4 46.4 1024.2 6.6 SE 14.2 ESE 0.0 554.6
14:45 28.2 46.4 1024.2 6.1 SSE 14.2 S 0.0 544.7
14:50 28.4 47.2 1024.2 3.5 SSE 11.5 SSW 0.0 532.5
14:55 28.5 46.4 1024.2 5.7 SE 14.2 ESE 0.0 520.9
15:00 28.4 46.2 1024.1 6.7 SE 11.5 S 0.0 507.5
15:05 28.3 46.9 1024.1 5.2 SE 16.9 S 0.0 494.7
15:10 28.1 48.0 1024.1 0.0 NNE 0.0 SSE 0.0 481.1
15:15 27.9 48.8 1024.1 0.0 NNE 0.0 ENE 0.0 466.7
15:20 27.8 48.9 1024.1 0.0 NNE 0.0 NE 0.0 454.9
15:25 27.8 48.7 1024.1 0.0 NNE 0.0 NE 0.0 440.0
15:30 27.8 49.2 1024.0 0.0 NNE 0.0 ENE 0.0 425.3
15:35 27.5 49.5 1024.0 0.0 NNE 0.0 NE 0.0 411.6
15:40 27.5 50.1 1024.0 0.0 NNE 0.0 NE 0.0 399.3
15:45 27.4 50.5 1024.0 0.0 NNE 0.0 ENE 0.0 385.3
15:50 27.4 51.8 1024.0 0.6 ENE 6.1 NNE 0.0 352.3
15:55 27.3 53.1 1024.1 0.5 SE 6.1 SSE 0.0 312.4
16:00 27.2 54.0 1024.0 0.0 NNE 0.0 ESE 0.0 305.4
16:05 27.0 54.6 1024.1 2.4 ENE 11.5 ENE 0.0 251.4
16:10 26.8 54.8 1024.1 4.2 E 11.5 E 0.0 189.6
16:15 26.7 55.0 1024.1 3.0 ENE 11.5 E 0.0 270.2
16:20 26.6 55.4 1024.1 5.0 ENE 8.8 ENE 0.0 275.0
16:25 26.6 55.4 1024.1 0.5 E 6.1 ENE 0.0 243.2
16:30 26.5 55.6 1024.2 0.0 NNE 0.0 ENE 0.0 71.5
16:35 26.5 55.8 1024.2 0.0 NNE 0.0 E 0.0 46.1
16:40 26.5 56.6 1024.3 0.0 NNE 0.0 ESE 0.0 37.9
16:45 26.3 57.7 1024.3 0.0 NNE 0.0 NE 0.0 35.9
16:50 26.2 58.2 1024.3 1.7 E 8.8 ESE 0.0 35.2
16:55 26.2 59.5 1024.3 3.2 E 8.8 E 0.0 34.9
17:00 26.1 61.3 1024.3 4.4 E 8.8 E 0.0 33.1
17:05 25.9 62.3 1024.3 2.4 E 11.5 E 0.0 31.7
17:10 25.7 63.0 1024.3 0.0 NNE 0.0 E 0.0 30.5
17:15 25.6 63.8 1024.3 0.0 NNE 0.0 ENE 0.0 29.6
17:20 25.6 63.6 1024.3 0.6 ENE 6.1 ENE 0.0 28.5
17:25 25.4 64.3 1024.3 0.7 E 6.1 E 0.0 27.0
17:30 25.3 64.7 1024.2 0.0 NNE 0.0 ENE 0.0 25.1
17:35 25.5 64.9 1024.3 0.0 NNE 0.0 SE 0.0 23.6
17:40 25.4 67.3 1024.3 0.3 SE 6.1 SE 0.0 22.4
17:45 25.3 68.0 1024.3 0.0 NNE 0.0 SE 0.0 20.2
17:50 25.1 68.1 1024.3 0.0 NNE 0.0 SSE 0.0 18.7
17:55 25.0 68.5 1024.3 0.0 NNE 0.0 SSE 0.0 16.1
18:00 24.8 69.5 1024.3 0.0 NNE 0.0 SE 0.0 14.3
18:05 24.7 69.5 1024.3 0.0 NNE 0.0 SE 0.0 11.3
18:10 24.5 71.2 1024.3 0.0 NNE 0.0 E 0.0 8.7
18:15 24.3 72.4 1024.4 0.0 NNE 0.0 SE 0.0 6.2
18:20 24.1 72.9 1024.4 0.0 NNE 0.0 S 0.0 4.2
18:25 24.0 73.6 1024.4 0.0 NNE 0.0 S 0.0 2.9
18:30 23.8 74.3 1024.4 0.0 NNE 0.0 S 0.0 1.9
18:35 23.6 75.1 1024.4 0.0 NNE 0.0 S 0.0 1.0
18:40 23.2 76.0 1024.4 0.0 NNE 0.0 S 0.0 0.4
18:45 23.0 76.7 1024.4 0.0 NNE 0.0 S 0.0 0.3
18:50 22.9 77.3 1024.5 0.0 NNE 0.0 W 0.0 0.2
18:55 22.7 78.0 1024.5 0.0 NNE 0.0 WSW 0.0 0.2
19:00 22.4 78.5 1024.5 0.0 NNE 0.0 WNW 0.0 0.2
19:05 22.2 79.2 1024.5 0.0 NNE 0.0 SW 0.0 0.2
19:10 22.1 80.1 1024.5 0.0 NNE 0.0 WSW 0.0 0.1
19:15 22.0 80.3 1024.6 0.0 NNE 0.0 NW 0.0 0.1
19:20 21.9 80.5 1024.6 0.0 NNE 0.0 W 0.0 0.2
19:25 21.8 80.8 1024.6 0.0 NNE 0.0 WSW 0.0 0.2
19:30 21.7 81.1 1024.6 0.0 NNE 0.0 W 0.0 0.2
19:35 21.6 81.3 1024.7 0.0 NNE 0.0 SW 0.0 0.1
19:40 21.5 81.7 1024.7 0.0 NNE 0.0 SSW 0.0 0.1
19:45 21.4 82.2 1024.7 0.0 NNE 0.0 SW 0.0 0.1
19:50 21.4 82.4 1024.8 0.0 NNE 0.0 SW 0.0 0.2
19:55 21.3 82.6 1024.9 0.0 NNE 0.0 WNW 0.0 0.1
20:00 21.2 82.8 1024.9 0.0 NNE 0.0 SSE 0.0 0.1
20:05 21.1 82.8 1024.8 0.0 NNE 0.0 SSW 0.0 0.1
20:10 21.1 82.7 1024.9 0.0 NNE 0.0 WSW 0.0 0.2
20:15 21.0 82.6 1024.9 0.0 NNE 0.0 WSW 0.0 0.1
20:20 21.0 82.5 1024.9 0.0 NNE 0.0 SSW 0.0 0.2
20:25 21.1 81.6 1025.0 0.0 NNE 0.0 SW 0.0 0.1
20:30 21.0 81.3 1025.0 0.0 NNE 0.0 W 0.0 0.1
20:35 20.9 81.3 1025.0 0.0 NNE 0.0 NW 0.0 0.1
20:40 21.0 81.1 1025.0 0.0 NNE 0.0 SW 0.0 0.1
Máxima 28.9 85.8 1025.7 11.1 ENE 25.0 SE 0.0 786.2
Mínima 17.0 42.8 1024.0
Total 0.0